Regional Weather Roundup
Issued by NWS

Current Version | Previous Version | Text Only | Print | Product List | Glossary On
Versions: 1 2 3 4 5 6 7 8 9 10 11 12 13 14 15 16 17 18 19 20 21 22 23 24 25 26 27 28 29 30 31 32 33 34 35 36 37 38 39 40 41 42 43 44 45 46 47 48 49 50
908
ASUS44 KBMX 121410
RWRAL

ALABAMA REGIONAL WEATHER ROUNDUP
NATIONAL WEATHER SERVICE BIRMINGHAM AL
800 AM CST FRI FEB 12 2016

NOTE: "FAIR" INDICATES FEW OR NO CLOUDS BELOW 12,000 FEET
WITH NO SIGNIFICANT WEATHER AND/OR OBSTRUCTIONS TO VISIBILITY.

THE REMARK "TC" DENOTES TEMPERATURE IN DEGREES CELSIUS.

ALZ001>011-014-016>018-020-121500-
NORTH ALABAMA

CITY           SKY/WX    TMP DP  RH WIND       PRES   REMARKS
MUSCLE SHOALS  CLOUDY    36  28  73 CALM      30.17S
HUNTSVILLE     CLOUDY    37  29  72 CALM      30.15S
DECATUR        CLOUDY    35  28  75 CALM      30.16F
HALEYVILLE     FAIR      38  28  67 CALM      30.16R
GADSDEN        MOSUNNY   38  28  67 CALM      30.17S
$$

ALZ012-013-022-023-030>036-040>044-121500-
WEST CENTRAL ALABAMA

CITY           SKY/WX    TMP DP  RH WIND       PRES   REMARKS
TUSCALOOSA     SUNNY     41  31  67 N5        30.17R
$$

ALZ015-024>027-033>036-040>044-121500-
CENTRAL ALABAMA

CITY           SKY/WX    TMP DP  RH WIND       PRES   REMARKS
BIRMINGHAM     MOSUNNY   43  25  49 CALM      30.17R
MONTGOMERY     CLOUDY    46  36  68 CALM      30.16R
SHELBY CO ARPT SUNNY     44  27  51 CALM      30.15S
MAXWELL AFB    PTSUNNY   45  36  70 N3        30.14R
GREENVILLE     CLOUDY    56  53  90 W9        30.14R
$$

ALZ019-021-028-029-037-038-045>048-121500-
EAST CENTRAL ALABAMA

CITY           SKY/WX    TMP DP  RH WIND       PRES   REMARKS
ANNISTON       SUNNY     41  26  55 NE5       30.16R
ALEXANDER CITY MOSUNNY   39  31  72 N3        30.14S
AUBURN         MOSUNNY   43  32  65 CALM      30.14R
$$

ALZ051>064-121500-
SOUTHWEST ALABAMA

CITY           SKY/WX    TMP DP  RH WIND       PRES   REMARKS
MOBILE         MOSUNNY   59  58  96 SW9       30.23R
BROOKLEY FIELD MOSUNNY   62  56  80 W9G16     30.24R
EVERGREEN      PTSUNNY   58  54  86 SW13G20   30.18R
$$

ALZ049-050-065>069-121500-
SOUTHEAST ALABAMA

CITY           SKY/WX    TMP DP  RH WIND       PRES   REMARKS
DOTHAN         CLOUDY    57  54  89 W12       30.20R
OZARK          NOT AVBL
TROY           CLOUDY    56  54  93 SW8       30.15R
EUFAULA        CLOUDY    50  48  93 CALM      30.13S
$$




USA.gov is the U.S. government's official web portal to all federal, state and local government web resources and services.